CZ-6A DEB, 54570

Orbit data source: Space-Track

CZ-6A DEB, 54570 is space debris in SSO originally from a launch on Fri, 11 Nov 2022 UTC launched from the Taiyaun Space Center, China (TSC). Debris objects in space refer to the collection of defunct objects orbiting the Earth. Examples of debris include non-operational satellites, rocket bodies, and fragments generated from explosions, collisions, or faulty payload assembly.

Loading next visibility...
Identifier
54570, 2022-151LW
Orbit
SSO
Country
Flag of CNCN / PRC
Related business
Manufacturer
SAST
Mission
Spacecraft
Bus & Motor
Unknown
Mass
Unknown
Launch date (UTC)
2022-11-11 (4 years ago)
Launch vehicle
Unknown
Launch site
Taiyaun Space Center, China (TSC)
Object type
Payload
Rocket body
Debris
Shape & HBR
Unknown shape, 0.1 m
Radar Cross Section
Small (<0.1 m²)

Expand to show TLE details & history
Last TLE update: 2 days ago

TLE from 2 days ago
0 CZ-6A DEB
1 54570U 22151LW  26235.52468524  .00000574  00000-0  26015-3 0  9999
2 54570  98.7571 261.8579 0034133 154.4143 205.8735 14.25512657196165
Epoch: 2026-08-23T12:35Z
TLE epoch observation values (Epoch: 2026-08-23T12:35:32.804Z)
Latitude
Longitude
101.15172°
Altitude
831.776 km
Speed
7.426 km/s
True Right ascension
17h 27m 25s
True Declination
0° 00' 00"
Sunlit
Object was in daylight at epoch
Visualization orbit readout
Latitude
Unknown
Longitude
Unknown
Altitude
Unknown
Speed
Unknown
Apparent Right ascension
Unknown
Apparent Declination
Unknown
Sunlit
N/A
Visualization observer readout
Local Sidereal Time
17:55:27
Azimuth
Unknown
Elevation
Unknown
Doppler factor
Unknown
Orbital elements
Apogee altitude
828.438 km
Perigee altitude
779.408 km
Semi-major axis
7,182.06 km
Eccentricity
0.00341
Inclination
98.7571°
RAAN
261.8579°
Arg. of periapsis
154.4143°
True anomaly
205.70347°
Mean anomaly
205.8735°
Eccentric anomaly
205.78842°
Mean motion
3.5659 °/min
Orbital period
100.96 mins
BSTAR
0.00026015
Loading maneuver chart data...
Computing Atmospheric mass density...

Documentation

Showing up to 5 results
|